Probability
66 66 66 69 74 81 86 89 91 95 99 100 99 91 74 53 35 29 34 38 41 43 45 41 31 23 17 9 5 4 2 1 1 0 0 0 0 0 0 0 0 0 0
68 69 68 68 72 77 82 86 89 92 95 98 98 92 78 59 41 32 33 36 39 45 47 40 29 22 17 11 6 4 3 1 1 0 0 0 0 0 0 0 0 0 0
66 67 67 65 66 69 74 78 81 85 88 92 95 93 84 70 52 38 32 31 34 39 40 36 27 21 18 13 8 5 3 2 1 0 0 0 0 0 0 0 0 0 0
64 64 63 62 62 64 67 70 75 78 80 84 88 88 84 74 59 45 35 29 27 28 29 29 25 21 16 11 7 5 3 1 0 0 0 0 0 0 0 0 0 0 0
65 63 62 61 63 65 66 66 69 71 72 75 78 79 77 70 61 51 39 30 25 22 23 24 21 17 12 8 5 4 2 0 0 0 0 0 0 0 0 0 0 0 0
64 62 58 59 63 66 67 64 64 63 64 67 71 73 72 69 64 55 42 31 24 20 19 18 15 10 7 4 2 2 2 0 0 0 0 0 0 0 0 0 0 0 0
51 51 50 51 57 64 67 64 61 61 62 67 71 73 72 69 63 53 41 30 22 18 15 13 9 6 3 1 0 1 1 0 0 0 0 0 0 0 0 0 0 0 0
28 32 35 39 48 58 64 64 64 65 68 72 74 73 71 66 55 43 32 24 17 12 10 7 5 3 2 0 0 0 0 0 0 0 0 0 0 0 0 0 0 0 0
11 15 21 28 36 44 52 56 60 64 67 69 68 65 60 51 39 26 18 13 8 5 3 2 1 1 1 0 0 0 0 0 0 0 0 0 0 0 0 0 0 0 0
3 5 11 17 24 28 32 37 43 47 49 49 47 42 34 25 17 10 6 4 2 0 0 0 0 0 0 0 0 0 0 0 0 0 0 0 0 0 0 0 0 0 0
0 1 3 7 12 15 16 19 22 24 24 22 20 15 10 6 3 2 1 1 0 0 0 0 0 0 0 0 0 0 0 0 0 0 0 0 0 0 0 0 0 0 0
0 0 0 1 3 5 7 8 9 9 7 5 4 2 0 0 0 0 0 0 0 0 0 0 0 0 0 0 0 0 0 0 0 0 0 0 0 0 0 0 0 0 0
0 0 0 0 0 1 1 2 2 2 1 0 0 0 0 0 0 0 0 0 0 0 0 0 0 0 0 0 0 0 0 0 0 0 0 0 0 0 0 0 0 0 0
0 0 0 0 0 0 0 0 0 0 0 0 0 0 0 0 0 0 0 0 0 0 0 0 0 0 0 0 0 0 0 0 0 0 0 0 0 0 0 0 0 0 0
0 0 0 0 0 0 0 0 0 0 0 0 0 0 0 0 0 0 0 0 0 0 0 0 0 0 0 0 0 0 0 0 0 0 0 0 0 0 0 0 0 0 0
0 0 0 0 0 0 0 0 0 0 0 0 0 0 0 0 0 0 0 0 0 0 0 0 0 0 0 0 0 0 0 0 0 0 0 0 0 0 0 0 0 0 0
0 0 0 0 0 0 0 0 0 0 0 0 0 0 0 0 0 0 0 0 0 0 0 0 0 0 0 0 0 0 0 0 0 0 0 0 0 0 0 0 0 0 0
0 0 0 0 0 0 0 0 0 0 0 0 0 0 0 0 0 0 0 0 0 0 0 0 0 0 0 0 0 0 0 0 0 0 0 0 0 0 0 0 0 0 0
0 0 0 0 0 0 0 0 0 0 0 0 0 0 0 0 0 0 0 0 0 0 0 0 0 0 0 0 0 0 0 0 0 0 0 0 0 0 0 0 0 0 0
0 0 0 0 0 0 0 0 0 0 0 0 0 0 0 0 0 0 0 0 0 0 0 0 0 0 0 0 0 0 0 0 0 0 0 0 0 0 0 0 0 0 0
0 0 0 0 0 0 0 0 0 0 0 0 0 0 0 0 0 0 0 0 0 0 0 0 0 0 0 0 0 0 0 0 0 0 0 0 0 0 0 0 0 0 0
0 0 0 0 0 0 0 0 0 0 0 0 0 0 0 0 0 0 0 0 0 0 0 0 0 0 0 0 0 0 0 0 0 0 0 0 0 0 0 0 0 0 0
0 0 0 0 0 0 0 0 0 0 0 0 0 0 0 0 0 0 0 0 0 0 0 0 0 0 0 0 0 0 0 0 0 0 0 0 0 0 0 0 0 0 0
0 0 0 0 0 0 0 0 0 0 0 0 0 0 0 0 0 0 0 0 0 0 0 0 0 0 0 0 0 0 0 0 0 0 0 0 0 0 0 0 0 0 0
0 0 0 0 0 0 0 0 0 0 0 0 0 0 0 0 0 0 0 0 0 0 0 0 0 0 0 0 0 0 0 0 0 0 0 0 0 0 0 0 0 0 0
0 0 0 0 0 0 0 0 0 0 0 0 0 0 0 0 0 0 0 0 0 0 0 0 0 0 0 0 0 0 0 0 0 0 0 0 0 0 0 0 0 0 0
Wind_Speed
7 6 6 7 7 9 11 12 10 10 7 5 4 4 3 2 2 2 4 5 5 5 5 3 4 3 3 3 3 2 3 3 2 2 4 4 5 5 5 4 4 5 6
8 8 8 8 10 11 11 10 9 10 9 7 5 3 3 3 3 2 3 4 5 5 5 5 4 3 3 3 3 3 2 2 2 2 1 4 5 3 3 2 3 4 4
11 10 9 9 10 10 11 9 8 9 9 7 4 2 2 1 1 2 2 3 4 4 4 5 4 4 3 3 4 3 4 3 3 3 3 2 3 4 4 3 2 3 3
4 5 6 5 5 6 7 8 8 7 6 6 5 5 5 4 5 3 3 3 4 4 4 4 4 3 3 3 4 4 3 3 3 3 3 4 3 2 4 4 3 3 3
3 2 2 3 2 3 4 5 5 6 6 7 7 6 5 4 2 2 3 3 2 3 3 3 3 3 2 3 3 3 3 3 4 3 2 2 2 3 3 5 5 4 3
7 5 4 2 2 2 3 3 3 4 5 6 6 6 6 5 4 3 3 2 1 1 1 2 2 2 2 3 3 3 4 4 4 3 3 2 2 2 2 4 5 5 5
7 7 6 3 2 2 3 4 4 3 4 4 4 4 4 5 5 4 3 3 1 1 0 1 1 1 2 2 3 3 4 4 4 4 3 3 3 2 2 4 4 4 4
3 3 5 5 3 4 4 4 3 3 3 4 4 3 4 4 3 4 4 3 2 2 1 2 1 1 1 2 2 2 3 2 3 4 3 3 3 2 3 3 3 4 4
2 1 2 3 4 4 4 4 4 4 4 5 6 5 5 6 5 5 5 4 3 2 3 3 2 2 2 2 2 1 3 3 3 3 3 3 3 2 3 3 3 3 4
3 2 2 2 3 3 3 4 4 4 4 5 5 5 5 6 6 5 5 4 3 3 3 3 3 3 3 3 2 2 3 3 3 2 3 2 2 2 2 3 3 3 4
4 3 2 2 3 4 4 5 4 4 4 4 5 5 5 5 5 5 4 3 3 3 3 3 3 4 4 4 4 3 3 3 3 3 3 3 3 3 3 3 3 3 3
2 3 2 3 4 5 4 4 3 3 3 4 5 5 5 5 5 4 4 4 4 3 3 4 4 5 5 5 5 4 4 3 3 3 3 4 4 4 4 3 4 4 4
1 1 2 3 4 3 3 3 2 2 3 4 5 5 5 5 5 4 4 4 4 4 4 4 5 5 5 5 5 4 4 4 3 3 3 3 4 4 4 5 4 4 5
2 1 1 3 3 3 3 3 2 2 3 4 5 4 4 4 4 4 4 4 4 4 4 4 5 5 5 5 5 5 5 5 4 4 3 3 3 4 5 5 5 5 6
3 3 2 2 2 3 3 3 3 3 3 4 4 3 3 4 4 4 4 4 4 4 4 5 4 4 4 4 5 5 5 5 5 5 4 3 6 7 5 4 5 5 4
4 3 2 2 1 2 2 2 2 2 3 4 4 4 4 4 4 4 4 4 4 4 5 5 5 5 4 6 7 5 3 4 4 4 5 4 6 9 9 8 6 5 4
4 4 4 2 1 1 0 0 0 1 2 3 4 4 5 4 4 4 5 4 4 4 4 4 4 4 5 7 8 7 3 3 3 4 4 5 6 8 6 8 8 7 8
5 4 4 3 2 2 1 1 1 1 2 3 3 4 5 5 4 5 4 3 3 3 3 3 4 4 5 9 8 6 4 4 4 4 4 4 6 8 7 6 7 7 6
6 5 5 4 3 2 2 1 1 1 2 3 3 3 4 4 4 4 3 2 3 3 3 3 4 4 5 9 9 7 3 3 3 3 4 5 5 10 10 7 7 8 7
5 4 4 3 3 3 2 2 1 2 2 3 4 3 4 4 4 4 3 2 3 3 3 3 3 4 4 7 9 7 3 3 2 3 4 7 8 10 10 6 5 7 7
6 5 5 4 4 3 3 3 2 3 3 4 4 4 4 4 4 3 2 3 3 3 3 3 3 3 4 6 10 9 4 3 3 4 4 5 11 11 11 7 4 5 5
6 6 5 4 4 4 4 4 3 3 4 5 5 4 3 3 3 4 3 3 4 4 3 3 2 2 3 5 7 9 8 5 4 3 4 5 10 11 11 8 9 11 8
6 5 5 5 4 4 5 5 4 5 5 5 5 4 4 3 3 4 3 3 3 3 2 2 1 1 2 3 6 8 9 9 4 3 7 9 10 9 7 10 12 9 6
6 5 6 6 5 4 5 5 5 5 6 5 4 4 4 3 3 3 3 3 3 3 3 2 1 0 1 2 3 3 4 6 6 5 7 8 8 6 6 6 6 5 5
6 6 7 7 6 6 6 5 5 6 5 5 4 4 4 4 3 2 2 3 3 4 4 3 3 3 2 2 1 1 2 3 4 4 3 4 4 5 5 4 4 5 5
7 7 7 7 7 7 6 6 6 6 6 5 4 4 3 3 3 3 1 2 1 2 4 5 5 3 4 3 2 2 4 6 6 3 3 3 3 3 3 3 4 4 4
Wind_Direction
177 179 177 169 164 175 184 190 191 189 182 178 183 184 198 202 204 199 183 179 183 181 178 181 188 191 198 215 221 221 242 253 242 276 298 291 274 265 260 254 248 249 251
171 175 181 172 170 181 189 195 194 193 190 190 186 182 179 194 200 197 188 190 186 181 183 184 192 198 205 227 233 220 232 254 223 203 276 312 320 311 290 289 265 257 261
173 176 183 183 181 188 187 187 192 200 196 189 171 160 149 150 174 195 201 205 190 186 182 186 190 200 202 223 236 231 224 244 256 209 194 221 267 308 306 304 296 291 280
153 167 163 169 188 197 192 182 182 186 195 187 182 181 190 200 207 198 196 202 194 189 189 188 193 204 212 229 242 240 230 230 253 257 226 210 201 240 303 308 305 305 275
75 100 121 144 151 185 189 178 171 177 192 194 195 190 202 207 198 185 178 182 187 185 184 185 191 207 222 239 253 261 250 236 238 240 247 249 230 213 229 287 303 310 289
42 34 25 58 120 134 138 153 169 196 199 194 193 190 194 189 176 172 166 165 168 178 191 182 189 208 233 254 262 262 262 255 251 249 239 228 233 238 229 263 287 293 289
41 28 12 14 52 92 110 132 160 186 191 179 173 176 175 170 164 158 156 146 133 126 185 145 180 222 255 269 273 274 274 267 262 259 252 240 236 231 235 252 271 283 294
36 32 11 0 36 64 83 103 124 133 133 128 125 125 129 126 117 115 116 114 113 109 86 78 66 358 321 310 306 293 285 284 281 279 277 272 269 258 241 238 259 285 289
349 1 25 14 40 50 64 88 100 94 97 101 98 94 96 98 100 96 92 92 94 98 79 71 52 18 356 339 341 326 315 319 304 295 295 285 279 277 267 254 233 240 276
312 325 8 33 56 60 59 63 78 93 95 98 103 103 98 99 102 96 93 93 84 74 69 48 30 17 14 13 10 338 332 343 332 321 327 324 311 312 307 296 276 240 242
313 326 347 14 56 58 57 66 68 79 86 98 105 105 104 103 101 100 101 96 78 71 64 50 43 42 36 29 25 4 6 6 356 357 3 355 348 348 335 324 312 290 265
303 316 358 26 40 53 56 61 71 84 93 105 108 109 112 109 104 102 98 91 79 68 68 64 59 51 45 37 30 12 6 8 6 358 5 2 1 354 337 330 319 307 285
230 339 29 40 38 41 46 51 54 76 99 110 109 107 110 114 113 106 93 82 74 61 59 66 67 60 49 35 19 14 12 17 13 12 20 6 5 349 334 329 327 317 310
183 144 73 44 33 35 38 43 45 56 87 102 109 114 119 123 120 107 93 81 77 69 60 73 84 77 55 34 19 17 17 12 7 11 19 10 359 335 324 322 323 321 318
184 167 127 62 36 30 31 35 39 52 84 97 99 108 111 108 103 96 87 79 78 78 78 84 78 64 54 29 22 15 19 17 12 11 10 11 5 345 329 316 314 322 322
197 175 146 109 47 24 17 29 32 42 82 101 103 103 99 94 90 88 83 79 75 76 78 82 79 57 38 22 33 33 29 24 26 16 4 357 7 351 350 351 353 351 340
191 179 175 181 213 265 305 308 24 55 81 99 104 106 103 93 87 88 82 79 81 85 86 88 87 69 28 26 26 33 57 44 35 28 18 13 6 1 354 354 1 2 2
188 184 183 194 222 236 227 207 110 92 108 109 108 107 107 103 96 92 89 83 82 89 94 92 91 74 33 25 25 35 63 62 48 37 28 22 7 6 4 4 2 351 345
188 191 194 195 204 208 197 160 150 142 135 132 131 125 118 117 115 111 107 99 90 84 85 92 91 78 32 25 30 39 57 59 46 33 29 22 11 2 15 19 3 354 346
174 182 188 181 184 197 169 142 170 163 165 160 144 131 126 128 135 138 130 113 107 105 95 84 80 79 53 32 37 41 50 50 21 3 7 15 12 8 18 21 8 356 334
176 172 167 169 188 181 153 152 169 178 173 144 129 122 125 132 139 136 128 124 112 102 93 86 68 63 50 36 38 42 50 43 29 13 357 352 360 11 14 17 7 332 323
178 170 164 179 186 167 152 154 175 170 141 129 123 121 122 128 123 123 114 115 118 109 100 87 60 34 27 31 33 39 44 47 50 15 347 342 357 10 16 18 11 12 18
183 173 167 175 179 166 154 163 179 154 134 128 130 129 118 110 119 127 124 111 114 119 119 111 87 11 3 10 27 37 40 40 39 359 353 355 359 5 11 15 18 22 24
179 167 156 165 178 175 166 171 172 154 140 143 148 145 134 126 116 114 125 130 140 141 144 150 160 299 347 352 4 14 21 21 16 356 348 355 4 11 8 7 13 18 24
178 166 164 174 185 179 174 175 167 152 149 156 160 157 153 149 137 123 132 155 176 178 169 180 178 176 225 257 244 43 19 8 358 343 353 7 6 8 5 2 6 13 18
172 167 169 174 179 175 180 182 172 159 156 162 168 167 162 158 152 143 108 45 159 174 175 179 179 206 222 231 260 343 353 350 355 20 4 348 351 358 0 2 3 10 12